EDW356 LSZH-LGKO

Flight info

Callsign EDW356
Flight time 2h 29m
Altitude 35000
Route DEGES Z2 TUNUM Z204 GEDSO DCT VEKEN/N0453F370 DCT RUDIK DCT MEDUX UM867 KOGAT DCT ERANA DCT TSL DCT MES UN139 LURUS UL995 KOPAR
Aircraft A320/M-SDE3FGHIRWY/LB1

Departure

Time 2026-05-08 12:30
Airport Zürich Airport (LSZH)

Arrival

Time 2026-05-08 14:59
Airport Kos International Airport "Ippokratis" (LGKO)
Time Latitude Longitude Altitude Speed Heading
2026-05-08 11:56 47.45166 8.55803 1397 ft 0 kts 186°
2026-05-08 12:19 47.45171 8.55804 1397 ft 4 kts 187°
2026-05-08 12:19 47.45197 8.55810 1397 ft 4 kts 191°
2026-05-08 12:19 47.45224 8.55819 1401 ft 4 kts 199°
2026-05-08 12:19 47.45248 8.55835 1407 ft 4 kts 225°
2026-05-08 12:20 47.45257 8.55858 1406 ft 1 kts 275°
2026-05-08 12:20 47.45256 8.55864 1405 ft 0 kts 275°
2026-05-08 12:23 47.45257 8.55857 1397 ft 2 kts 275°
2026-05-08 12:23 47.45261 8.55792 1400 ft 10 kts 275°
2026-05-08 12:23 47.45270 8.55655 1397 ft 17 kts 275°
2026-05-08 12:23 47.45352 8.55523 1402 ft 21 kts 334°
2026-05-08 12:24 47.45460 8.55444 1405 ft 19 kts 333°
2026-05-08 12:24 47.45587 8.55362 1398 ft 20 kts 336°
2026-05-08 12:24 47.45640 8.55331 1399 ft 2 kts 340°
2026-05-08 12:24 47.45667 8.55317 1404 ft 6 kts 341°
2026-05-08 12:25 47.45723 8.55284 1396 ft 12 kts 335°
2026-05-08 12:25 47.45815 8.55221 1399 ft 17 kts 335°
2026-05-08 12:25 47.45907 8.55094 1393 ft 21 kts 297°
2026-05-08 12:25 47.46018 8.54941 1399 ft 23 kts 329°
2026-05-08 12:26 47.46152 8.54843 1395 ft 20 kts 333°
2026-05-08 12:26 47.46283 8.54753 1403 ft 23 kts 336°
2026-05-08 12:26 47.46423 8.54665 1396 ft 15 kts 334°
2026-05-08 12:26 47.46532 8.54591 1396 ft 19 kts 337°
2026-05-08 12:27 47.46670 8.54501 1396 ft 23 kts 335°
2026-05-08 12:27 47.46827 8.54394 1394 ft 26 kts 336°
2026-05-08 12:27 47.46959 8.54308 1405 ft 20 kts 336°
2026-05-08 12:27 47.47096 8.54214 1403 ft 23 kts 332°
2026-05-08 12:28 47.47245 8.54110 1402 ft 26 kts 336°
2026-05-08 12:28 47.47403 8.54003 1403 ft 22 kts 334°
2026-05-08 12:28 47.47537 8.53912 1402 ft 22 kts 335°
2026-05-08 12:28 47.47602 8.53741 1398 ft 21 kts 256°
2026-05-08 12:29 47.47497 8.53648 1403 ft 20 kts 166°
2026-05-08 12:29 47.47332 8.53753 1394 ft 46 kts 153°
2026-05-08 12:29 47.46822 8.54108 1403 ft 113 kts 155°
2026-05-08 12:29 47.45938 8.54733 1419 ft 162 kts 150°
2026-05-08 12:30 47.44947 8.55429 2060 ft 157 kts 152°
2026-05-08 12:30 47.43950 8.56130 2712 ft 161 kts 147°
2026-05-08 12:30 47.43122 8.57349 3080 ft 180 kts 116°
2026-05-08 12:30 47.42884 8.59205 3398 ft 199 kts 81°
2026-05-08 12:31 47.43539 8.61078 3726 ft 217 kts 44°
2026-05-08 12:31 47.44650 8.62626 4471 ft 221 kts 43°
2026-05-08 12:31 47.45746 8.64269 4943 ft 226 kts 54°
2026-05-08 12:31 47.46352 8.66403 5348 ft 229 kts 82°
2026-05-08 12:32 47.46423 8.68769 5757 ft 234 kts 89°
2026-05-08 12:32 47.46453 8.71294 6174 ft 258 kts 89°
2026-05-08 12:32 47.46485 8.74058 6715 ft 277 kts 89°
2026-05-08 12:32 47.46523 8.76951 7502 ft 284 kts 89°
2026-05-08 12:33 47.46597 8.79860 8417 ft 289 kts 88°
2026-05-08 12:33 47.46588 8.82845 9325 ft 292 kts 99°
2026-05-08 12:33 47.46207 8.85804 10203 ft 295 kts 104°
2026-05-08 12:33 47.45761 8.88877 10592 ft 317 kts 104°
2026-05-08 12:34 47.45276 8.92170 10862 ft 340 kts 104°
2026-05-08 12:34 47.44758 8.95717 11127 ft 363 kts 103°
2026-05-08 12:34 47.44223 8.99434 11649 ft 373 kts 103°
2026-05-08 12:34 47.43685 9.03213 12359 ft 378 kts 103°
2026-05-08 12:35 47.43152 9.06993 13058 ft 382 kts 103°
2026-05-08 12:35 47.42605 9.10858 13771 ft 387 kts 103°
2026-05-08 12:35 47.42043 9.14771 14414 ft 391 kts 103°
2026-05-08 12:35 47.41478 9.18682 15051 ft 394 kts 103°
2026-05-08 12:36 47.41081 9.22702 15671 ft 400 kts 91°
2026-05-08 12:36 47.41534 9.26771 16281 ft 406 kts 71°
2026-05-08 12:36 47.42581 9.30673 16917 ft 410 kts 71°
2026-05-08 12:36 47.43376 9.34744 17551 ft 413 kts 76°
2026-05-08 12:37 47.44073 9.38890 18185 ft 417 kts 77°
2026-05-08 12:37 47.44740 9.43013 18718 ft 421 kts 77°
2026-05-08 12:37 47.45395 9.47249 19231 ft 424 kts 78°
2026-05-08 12:37 47.46034 9.51534 19710 ft 428 kts 78°
2026-05-08 12:38 47.46667 9.55859 20168 ft 432 kts 78°
2026-05-08 12:38 47.47081 9.60284 20631 ft 435 kts 88°
2026-05-08 12:38 47.47028 9.64775 21104 ft 438 kts 96°
2026-05-08 12:38 47.46775 9.69281 21547 ft 441 kts 96°
2026-05-08 12:39 47.46528 9.73761 21970 ft 445 kts 96°
2026-05-08 12:39 47.46275 9.78327 22397 ft 448 kts 96°
2026-05-08 12:39 47.46019 9.82937 22811 ft 451 kts 96°
2026-05-08 12:39 47.45843 9.86075 23067 ft 454 kts 96°
2026-05-08 12:40 47.45581 9.90740 23463 ft 457 kts 96°
2026-05-08 12:40 47.45314 9.95454 23819 ft 460 kts 96°
2026-05-08 12:40 47.45045 10.00183 24146 ft 463 kts 96°
2026-05-08 12:40 47.44774 10.04900 24475 ft 466 kts 96°
2026-05-08 12:41 47.44497 10.09681 24787 ft 468 kts 97°
2026-05-08 12:41 47.44219 10.14492 25085 ft 471 kts 97°
2026-05-08 12:41 47.43870 10.19264 25380 ft 472 kts 102°
2026-05-08 12:41 47.43248 10.24035 25675 ft 474 kts 103°
2026-05-08 12:42 47.42603 10.28833 25954 ft 476 kts 104°
2026-05-08 12:42 47.41960 10.33585 26237 ft 478 kts 104°
2026-05-08 12:42 47.41301 10.38449 26513 ft 480 kts 104°
2026-05-08 12:42 47.40641 10.43299 26775 ft 482 kts 104°
2026-05-08 12:43 47.39978 10.48164 27008 ft 484 kts 104°
2026-05-08 12:43 47.39310 10.53056 27212 ft 486 kts 104°
2026-05-08 12:43 47.38645 10.57895 27419 ft 488 kts 104°
2026-05-08 12:43 47.37965 10.62813 27645 ft 490 kts 104°
2026-05-08 12:44 47.37278 10.67749 27928 ft 490 kts 104°
2026-05-08 12:44 47.36591 10.72686 28243 ft 490 kts 105°
2026-05-08 12:44 47.35906 10.77603 28541 ft 489 kts 105°
2026-05-08 12:44 47.35215 10.82531 28862 ft 489 kts 105°
2026-05-08 12:45 47.34523 10.87441 29168 ft 489 kts 105°
2026-05-08 12:45 47.33827 10.92356 29430 ft 490 kts 105°
2026-05-08 12:45 47.33138 10.97210 29744 ft 490 kts 105°
2026-05-08 12:45 47.32439 11.02130 30076 ft 490 kts 105°
2026-05-08 12:46 47.31740 11.07047 30360 ft 490 kts 106°
2026-05-08 12:46 47.31036 11.11953 30640 ft 489 kts 106°
2026-05-08 12:46 47.30331 11.16853 30946 ft 488 kts 106°
2026-05-08 12:46 47.29627 11.21753 31261 ft 487 kts 107°
2026-05-08 12:47 47.28929 11.26626 31558 ft 486 kts 107°
2026-05-08 12:47 47.28228 11.31502 31864 ft 486 kts 107°
2026-05-08 12:47 47.27524 11.36367 32179 ft 485 kts 107°
2026-05-08 12:47 47.26817 11.41217 32478 ft 484 kts 107°
2026-05-08 12:48 47.26067 11.46042 32767 ft 480 kts 112°
2026-05-08 12:48 47.24948 11.50625 33055 ft 472 kts 121°
2026-05-08 12:48 47.23439 11.54815 33334 ft 464 kts 129°
2026-05-08 12:48 47.21622 11.58705 33628 ft 459 kts 132°
2026-05-08 12:49 47.19781 11.62551 33850 ft 458 kts 132°
2026-05-08 12:49 47.17946 11.66402 34025 ft 457 kts 132°
2026-05-08 12:49 47.16141 11.70184 34283 ft 456 kts 132°
2026-05-08 12:49 47.14318 11.73987 34511 ft 456 kts 132°
2026-05-08 12:50 47.12486 11.77794 34731 ft 456 kts 131°
2026-05-08 12:50 47.10650 11.81616 34935 ft 457 kts 131°
2026-05-08 12:50 47.07193 11.89570 35015 ft 468 kts 122°
2026-05-08 12:51 47.02919 12.02456 35028 ft 469 kts 122°
2026-05-08 12:52 47.00033 12.11058 35048 ft 469 kts 122°
2026-05-08 12:52 46.95706 12.23876 35063 ft 469 kts 121°
2026-05-08 12:53 46.92812 12.32444 35067 ft 469 kts 121°
2026-05-08 12:53 46.89912 12.41001 35062 ft 469 kts 121°
2026-05-08 12:54 46.87006 12.49546 35052 ft 469 kts 121°
2026-05-08 12:54 46.84105 12.58040 35038 ft 469 kts 122°
2026-05-08 12:55 46.81177 12.66582 35023 ft 470 kts 122°
2026-05-08 12:55 46.78243 12.75104 35005 ft 470 kts 122°
2026-05-08 12:56 46.75307 12.83632 35006 ft 470 kts 122°
2026-05-08 12:56 46.72354 12.92163 35012 ft 471 kts 122°
2026-05-08 12:57 46.69416 13.00637 35015 ft 471 kts 122°
2026-05-08 12:57 46.66451 13.09173 35016 ft 471 kts 122°
2026-05-08 12:58 46.63489 13.17654 35024 ft 471 kts 122°
2026-05-08 12:58 46.60512 13.26150 35020 ft 471 kts 122°
2026-05-08 12:59 46.57523 13.34647 35025 ft 471 kts 122°
2026-05-08 12:59 46.54009 13.42579 35042 ft 464 kts 132°
2026-05-08 13:00 46.50163 13.50111 35034 ft 464 kts 131°
2026-05-08 13:00 46.46337 13.57601 35037 ft 464 kts 131°
2026-05-08 13:01 46.42490 13.65123 35035 ft 464 kts 131°
2026-05-08 13:01 46.39282 13.71358 35032 ft 464 kts 132°
2026-05-08 13:02 46.35535 13.78620 35044 ft 464 kts 132°
2026-05-08 13:02 46.31671 13.86106 35042 ft 463 kts 132°
2026-05-08 13:03 46.27851 13.93489 35048 ft 463 kts 132°
2026-05-08 13:03 46.23996 14.00921 35057 ft 462 kts 132°
2026-05-08 13:04 46.20159 14.08303 35064 ft 462 kts 132°
2026-05-08 13:04 46.16278 14.15732 35065 ft 462 kts 132°
2026-05-08 13:05 46.12403 14.23133 35063 ft 462 kts 132°
2026-05-08 13:05 46.08530 14.30521 35062 ft 462 kts 132°
2026-05-08 13:06 46.04671 14.37855 35056 ft 462 kts 132°
2026-05-08 13:06 46.00788 14.45214 35052 ft 462 kts 132°
2026-05-08 13:07 45.96896 14.52571 35047 ft 462 kts 132°
2026-05-08 13:07 45.92997 14.59933 35043 ft 462 kts 132°
2026-05-08 13:08 45.89120 14.67228 35037 ft 461 kts 132°
2026-05-08 13:08 45.85216 14.74548 35035 ft 461 kts 132°
2026-05-08 13:09 45.81306 14.81873 35034 ft 461 kts 132°
2026-05-08 13:09 45.77403 14.89161 35036 ft 461 kts 132°
2026-05-08 13:10 45.73477 14.96455 35042 ft 461 kts 132°
2026-05-08 13:10 45.69694 15.03474 35037 ft 462 kts 132°
2026-05-08 13:11 45.65773 15.10744 35039 ft 462 kts 133°
2026-05-08 13:11 45.61830 15.18028 35046 ft 462 kts 132°
2026-05-08 13:12 45.57891 15.25292 35046 ft 462 kts 133°
2026-05-08 13:12 45.53969 15.32513 35050 ft 462 kts 133°
2026-05-08 13:13 45.50014 15.39764 35052 ft 462 kts 133°
2026-05-08 13:13 45.46054 15.47002 35053 ft 462 kts 133°
2026-05-08 13:14 45.42122 15.54179 35054 ft 462 kts 133°
2026-05-08 13:14 45.38156 15.61390 35060 ft 462 kts 133°
2026-05-08 13:15 45.34186 15.68591 35062 ft 461 kts 133°
2026-05-08 13:15 45.30220 15.75770 35071 ft 461 kts 133°
2026-05-08 13:16 45.26272 15.82906 35062 ft 461 kts 133°
2026-05-08 13:16 45.22301 15.90062 35065 ft 460 kts 133°
2026-05-08 13:17 45.18332 15.97194 35062 ft 460 kts 133°
2026-05-08 13:17 45.14385 16.04271 35057 ft 460 kts 133°
2026-05-08 13:18 45.10404 16.11385 35055 ft 459 kts 133°
2026-05-08 13:18 45.06447 16.18445 35052 ft 460 kts 133°
2026-05-08 13:19 45.02465 16.25533 35048 ft 460 kts 133°
2026-05-08 13:19 44.98495 16.32571 35045 ft 460 kts 133°
2026-05-08 13:20 44.94488 16.39631 35042 ft 460 kts 133°
2026-05-08 13:20 44.90500 16.46637 35042 ft 460 kts 133°
2026-05-08 13:21 44.86475 16.53676 35040 ft 460 kts 133°
2026-05-08 13:21 44.82448 16.60718 35039 ft 460 kts 133°
2026-05-08 13:22 44.78447 16.67693 35036 ft 460 kts 133°
2026-05-08 13:22 44.74416 16.74701 35033 ft 459 kts 133°
2026-05-08 13:23 44.70393 16.81681 35035 ft 459 kts 133°
2026-05-08 13:23 44.66364 16.88664 35042 ft 458 kts 133°
2026-05-08 13:24 44.62342 16.95608 35044 ft 458 kts 133°
2026-05-08 13:24 44.58339 17.02495 35051 ft 457 kts 133°
2026-05-08 13:25 44.54311 17.09426 35048 ft 457 kts 133°
2026-05-08 13:25 44.50287 17.16326 35049 ft 457 kts 133°
2026-05-08 13:26 44.46249 17.23232 35049 ft 457 kts 133°
2026-05-08 13:26 44.42213 17.30109 35045 ft 457 kts 133°
2026-05-08 13:27 44.38194 17.36953 35044 ft 457 kts 133°
2026-05-08 13:27 44.34147 17.43817 35049 ft 457 kts 133°
2026-05-08 13:28 44.30095 17.50691 35050 ft 458 kts 133°
2026-05-08 13:28 44.26032 17.57552 35049 ft 458 kts 133°
2026-05-08 13:29 44.21996 17.64349 35051 ft 457 kts 133°
2026-05-08 13:29 44.17937 17.71179 35060 ft 457 kts 133°
2026-05-08 13:30 44.13874 17.77988 35059 ft 456 kts 133°
2026-05-08 13:30 44.09806 17.84792 35054 ft 456 kts 133°
2026-05-08 13:31 44.05761 17.91544 35051 ft 455 kts 133°
2026-05-08 13:31 44.01711 17.98310 35055 ft 455 kts 133°
2026-05-08 13:32 43.97651 18.05061 35055 ft 455 kts 133°
2026-05-08 13:32 43.93583 18.11796 35057 ft 455 kts 133°
2026-05-08 13:33 43.89534 18.18486 35059 ft 455 kts 133°
2026-05-08 13:33 43.85448 18.25226 35058 ft 455 kts 133°
2026-05-08 13:34 43.81393 18.31896 35055 ft 455 kts 133°
2026-05-08 13:34 43.77315 18.38609 35054 ft 455 kts 133°
2026-05-08 13:35 43.73224 18.45318 35051 ft 455 kts 133°
2026-05-08 13:35 43.69158 18.51959 35042 ft 454 kts 133°
2026-05-08 13:36 43.65064 18.58628 35033 ft 454 kts 133°
2026-05-08 13:36 43.60979 18.65285 35019 ft 454 kts 133°
2026-05-08 13:37 43.56882 18.71939 35005 ft 454 kts 133°
2026-05-08 13:37 43.52808 18.78542 34998 ft 454 kts 133°
2026-05-08 13:38 43.48702 18.85175 34997 ft 455 kts 133°
2026-05-08 13:38 43.44583 18.91819 34988 ft 455 kts 133°
2026-05-08 13:39 43.40468 18.98442 34987 ft 455 kts 133°
2026-05-08 13:39 43.36338 19.05066 34985 ft 456 kts 133°
2026-05-08 13:40 43.32234 19.11637 34985 ft 456 kts 133°
2026-05-08 13:40 43.28093 19.18266 34981 ft 456 kts 133°
2026-05-08 13:41 43.24648 19.23766 34980 ft 457 kts 133°
2026-05-08 13:41 43.19819 19.31444 34982 ft 457 kts 133°
2026-05-08 13:42 43.16353 19.36944 34980 ft 458 kts 133°
2026-05-08 13:42 43.12188 19.43558 34985 ft 458 kts 133°
2026-05-08 13:43 43.08004 19.50164 34987 ft 458 kts 133°
2026-05-08 13:43 43.03845 19.56732 34984 ft 458 kts 133°
2026-05-08 13:44 42.99658 19.63317 34985 ft 459 kts 133°
2026-05-08 13:44 42.95455 19.69901 34990 ft 459 kts 133°
2026-05-08 13:45 42.91277 19.76448 34999 ft 459 kts 133°
2026-05-08 13:45 42.87067 19.83026 35009 ft 460 kts 133°
2026-05-08 13:46 42.82847 19.89604 35016 ft 460 kts 134°
2026-05-08 13:46 42.78623 19.96168 35029 ft 460 kts 134°
2026-05-08 13:47 42.74430 20.02683 35037 ft 460 kts 133°
2026-05-08 13:47 42.70307 20.09356 35042 ft 460 kts 131°
2026-05-08 13:48 42.66270 20.16135 35044 ft 460 kts 131°
2026-05-08 13:48 42.62219 20.22900 35047 ft 460 kts 132°
2026-05-08 13:49 42.58161 20.29581 35045 ft 460 kts 132°
2026-05-08 13:49 42.54059 20.36291 35048 ft 460 kts 132°
2026-05-08 13:50 42.49967 20.42973 35050 ft 461 kts 132°
2026-05-08 13:50 42.45889 20.49619 35049 ft 461 kts 132°
2026-05-08 13:51 42.41774 20.56308 35049 ft 461 kts 132°
2026-05-08 13:51 42.37667 20.62977 35051 ft 461 kts 132°
2026-05-08 13:52 42.33565 20.69636 35055 ft 460 kts 131°
2026-05-08 13:52 42.29494 20.76240 35056 ft 460 kts 132°
2026-05-08 13:53 42.25369 20.82873 35056 ft 460 kts 132°
2026-05-08 13:53 42.21241 20.89501 35047 ft 460 kts 131°
2026-05-08 13:54 42.17147 20.96079 35048 ft 460 kts 132°
2026-05-08 13:54 42.13029 21.02682 35041 ft 459 kts 132°
2026-05-08 13:55 42.08625 21.08884 35034 ft 457 kts 139°
2026-05-08 13:56 42.01678 21.17693 35023 ft 457 kts 138°
2026-05-08 13:56 41.97048 21.23555 35016 ft 457 kts 138°
2026-05-08 13:57 41.92448 21.29399 35013 ft 457 kts 138°
2026-05-08 13:57 41.87830 21.35249 35007 ft 456 kts 138°
2026-05-08 13:58 41.83188 21.41078 35008 ft 457 kts 138°
2026-05-08 13:58 41.78578 21.46867 35011 ft 457 kts 138°
2026-05-08 13:59 41.73934 21.52691 35006 ft 457 kts 138°
2026-05-08 13:59 41.69285 21.58514 35002 ft 457 kts 138°
2026-05-08 14:00 41.64618 21.64351 35005 ft 459 kts 138°
2026-05-08 14:00 41.59968 21.70151 34999 ft 458 kts 138°
2026-05-08 14:01 41.55285 21.75967 35001 ft 459 kts 138°
2026-05-08 14:01 41.50602 21.81766 34998 ft 458 kts 138°
2026-05-08 14:02 41.45944 21.87533 34997 ft 459 kts 138°
2026-05-08 14:02 41.41272 21.93306 34990 ft 460 kts 139°
2026-05-08 14:03 41.36569 21.99108 34995 ft 461 kts 139°
2026-05-08 14:03 41.31842 22.04925 35018 ft 463 kts 139°
2026-05-08 14:04 41.27096 22.10753 35007 ft 463 kts 139°
2026-05-08 14:04 41.22355 22.16570 35005 ft 464 kts 139°
2026-05-08 14:05 41.17633 22.22345 35017 ft 465 kts 139°
2026-05-08 14:05 41.12766 22.28018 35017 ft 465 kts 142°
2026-05-08 14:06 41.07730 22.33356 35019 ft 464 kts 144°
2026-05-08 14:06 41.02646 22.38665 35020 ft 464 kts 144°
2026-05-08 14:07 40.97600 22.44035 35024 ft 465 kts 143°
2026-05-08 14:07 40.92598 22.49408 35027 ft 465 kts 143°
2026-05-08 14:08 40.87556 22.54806 35029 ft 466 kts 144°
2026-05-08 14:08 40.82493 22.60206 35027 ft 466 kts 144°
2026-05-08 14:09 40.77445 22.65582 35028 ft 466 kts 144°
2026-05-08 14:09 40.72401 22.70938 35036 ft 467 kts 144°
2026-05-08 14:10 40.67351 22.76277 35044 ft 467 kts 145°
2026-05-08 14:10 40.62265 22.81643 35053 ft 468 kts 145°
2026-05-08 14:11 40.57181 22.87012 35059 ft 469 kts 145°
2026-05-08 14:11 40.52084 22.92384 35059 ft 469 kts 145°
2026-05-08 14:12 40.47003 22.97721 35058 ft 470 kts 145°
2026-05-08 14:12 40.42301 23.03791 35051 ft 475 kts 137°
2026-05-08 14:13 40.37740 23.10105 35047 ft 476 kts 138°
2026-05-08 14:13 40.33172 23.16413 35036 ft 477 kts 138°
2026-05-08 14:14 40.28622 23.22673 35025 ft 477 kts 138°
2026-05-08 14:14 40.24030 23.28989 35019 ft 478 kts 139°
2026-05-08 14:15 40.19419 23.35318 35025 ft 479 kts 139°
2026-05-08 14:15 40.14832 23.41606 35025 ft 480 kts 139°
2026-05-08 14:16 40.10210 23.47937 35026 ft 481 kts 139°
2026-05-08 14:16 40.05594 23.54223 35028 ft 482 kts 139°
2026-05-08 14:17 40.00943 23.60530 35029 ft 482 kts 140°
2026-05-08 14:17 39.96290 23.66847 35027 ft 483 kts 140°
2026-05-08 14:18 39.91624 23.73170 35027 ft 483 kts 140°
2026-05-08 14:18 39.86949 23.79502 35032 ft 484 kts 140°
2026-05-08 14:19 39.82349 23.85721 35032 ft 485 kts 140°
2026-05-08 14:19 39.77656 23.92041 35023 ft 485 kts 140°
2026-05-08 14:20 39.72977 23.98328 35034 ft 486 kts 140°
2026-05-08 14:20 39.68268 24.04655 35037 ft 487 kts 140°
2026-05-08 14:21 39.63528 24.10998 35038 ft 488 kts 141°
2026-05-08 14:21 39.58821 24.17282 35034 ft 488 kts 141°
2026-05-08 14:22 39.54068 24.23617 35034 ft 489 kts 141°
2026-05-08 14:22 39.49332 24.29907 35032 ft 490 kts 141°
2026-05-08 14:23 39.45340 24.35214 35031 ft 490 kts 141°
2026-05-08 14:23 39.40594 24.41514 35032 ft 491 kts 141°
2026-05-08 14:24 39.35811 24.47834 35031 ft 492 kts 141°
2026-05-08 14:24 39.31012 24.54162 35032 ft 492 kts 141°
2026-05-08 14:25 39.26239 24.60446 35034 ft 493 kts 141°
2026-05-08 14:25 39.21420 24.66769 35037 ft 493 kts 141°
2026-05-08 14:26 39.16598 24.73102 35041 ft 494 kts 141°
2026-05-08 14:26 39.11772 24.79427 35044 ft 494 kts 141°
2026-05-08 14:27 39.06966 24.85691 35044 ft 495 kts 141°
2026-05-08 14:27 39.02120 24.91999 35045 ft 495 kts 141°
2026-05-08 14:28 38.97274 24.98315 35049 ft 495 kts 141°
2026-05-08 14:28 38.92421 25.04619 35050 ft 496 kts 141°
2026-05-08 14:29 38.87583 25.10885 35050 ft 496 kts 141°
2026-05-08 14:29 38.82701 25.17189 35056 ft 496 kts 141°
2026-05-08 14:30 38.77850 25.23439 35059 ft 497 kts 141°
2026-05-08 14:30 38.72962 25.29736 35062 ft 497 kts 141°
2026-05-08 14:31 38.68097 25.35989 35066 ft 497 kts 141°
2026-05-08 14:31 38.65160 25.39756 35065 ft 497 kts 141°
2026-05-08 14:32 38.57805 25.49157 35070 ft 498 kts 141°
2026-05-08 14:32 38.52924 25.55392 35070 ft 498 kts 141°
2026-05-08 14:33 38.48011 25.61648 35075 ft 498 kts 141°
2026-05-08 14:33 38.43088 25.67898 35078 ft 498 kts 141°
2026-05-08 14:34 38.38159 25.74143 34828 ft 499 kts 141°
2026-05-08 14:34 38.35721 25.77234 34593 ft 499 kts 141°
2026-05-08 14:34 38.33257 25.80362 34356 ft 500 kts 141°
2026-05-08 14:35 38.30782 25.83496 34121 ft 500 kts 141°
2026-05-08 14:35 38.28305 25.86619 33851 ft 501 kts 142°
2026-05-08 14:35 38.25639 25.89418 33571 ft 492 kts 153°
2026-05-08 14:35 38.22702 25.91571 33312 ft 483 kts 162°
2026-05-08 14:36 38.19603 25.93122 33053 ft 478 kts 168°
2026-05-08 14:36 38.16475 25.94547 32785 ft 479 kts 168°
2026-05-08 14:36 38.13337 25.95975 32524 ft 479 kts 167°
2026-05-08 14:36 38.10232 25.97389 32266 ft 480 kts 167°
2026-05-08 14:37 38.07074 25.98826 32013 ft 481 kts 167°
2026-05-08 14:37 38.03920 26.00259 31760 ft 482 kts 167°
2026-05-08 14:37 38.00758 26.01694 31504 ft 483 kts 167°
2026-05-08 14:37 37.97583 26.03133 31256 ft 483 kts 167°
2026-05-08 14:38 37.94406 26.04575 31007 ft 484 kts 167°
2026-05-08 14:38 37.91229 26.06016 30764 ft 485 kts 167°
2026-05-08 14:38 37.88050 26.07455 30523 ft 486 kts 167°
2026-05-08 14:38 37.84902 26.08878 30280 ft 487 kts 167°
2026-05-08 14:39 37.81696 26.10326 30025 ft 488 kts 167°
2026-05-08 14:39 37.78494 26.11768 29750 ft 488 kts 167°
2026-05-08 14:39 37.75286 26.13213 29465 ft 489 kts 167°
2026-05-08 14:39 37.72072 26.14660 29186 ft 490 kts 167°
2026-05-08 14:40 37.68854 26.16107 28913 ft 491 kts 167°
2026-05-08 14:40 37.65628 26.17559 28650 ft 492 kts 166°
2026-05-08 14:40 37.62437 26.18993 28377 ft 493 kts 166°
2026-05-08 14:40 37.59198 26.20446 28108 ft 494 kts 166°
2026-05-08 14:41 37.55951 26.21903 27857 ft 495 kts 166°
2026-05-08 14:41 37.52705 26.23362 27600 ft 496 kts 166°
2026-05-08 14:41 37.49451 26.24823 27342 ft 497 kts 166°
2026-05-08 14:41 37.46177 26.26294 27086 ft 498 kts 166°
2026-05-08 14:42 37.42904 26.27758 26835 ft 499 kts 166°
2026-05-08 14:42 37.39625 26.29216 26585 ft 500 kts 166°
2026-05-08 14:42 37.36335 26.30678 26337 ft 501 kts 166°
2026-05-08 14:42 37.33042 26.32142 26093 ft 503 kts 166°
2026-05-08 14:43 37.29778 26.33595 25853 ft 504 kts 166°
2026-05-08 14:43 37.26459 26.35073 25610 ft 505 kts 166°
2026-05-08 14:43 37.23138 26.36550 25367 ft 506 kts 165°
2026-05-08 14:43 37.19812 26.38026 25133 ft 507 kts 165°
2026-05-08 14:44 37.16483 26.39502 24894 ft 508 kts 165°
2026-05-08 14:44 37.13143 26.40981 24658 ft 509 kts 165°
2026-05-08 14:44 37.09802 26.42461 23734 ft 508 kts 165°
2026-05-08 14:44 37.06514 26.43918 22349 ft 507 kts 165°
2026-05-08 14:45 37.03208 26.45387 21309 ft 492 kts 164°
2026-05-08 14:45 37.00017 26.46813 19911 ft 479 kts 165°
2026-05-08 14:45 36.96920 26.48192 18970 ft 468 kts 165°
2026-05-08 14:45 36.93915 26.49602 17937 ft 464 kts 159°
2026-05-08 14:46 36.91149 26.51636 16991 ft 458 kts 146°
2026-05-08 14:46 36.88819 26.54304 16091 ft 451 kts 133°
2026-05-08 14:46 36.87018 26.57478 15217 ft 445 kts 120°
2026-05-08 14:46 36.85734 26.60949 14388 ft 437 kts 114°
2026-05-08 14:47 36.84553 26.64408 13542 ft 428 kts 114°
2026-05-08 14:47 36.83467 26.67817 12759 ft 417 kts 108°
2026-05-08 14:47 36.82796 26.71311 12035 ft 411 kts 98°
2026-05-08 14:47 36.82448 26.74789 11332 ft 404 kts 97°
2026-05-08 14:48 36.81796 26.78072 11135 ft 376 kts 114°
2026-05-08 14:48 36.80533 26.80757 11017 ft 343 kts 131°
2026-05-08 14:48 36.78882 26.82747 10701 ft 319 kts 148°
2026-05-08 14:48 36.76970 26.84040 10472 ft 309 kts 164°
2026-05-08 14:49 36.74924 26.84706 10235 ft 302 kts 173°
2026-05-08 14:49 36.72909 26.85353 10046 ft 303 kts 167°
2026-05-08 14:49 36.70928 26.86288 9921 ft 305 kts 160°
2026-05-08 14:49 36.69033 26.87490 9786 ft 307 kts 153°
2026-05-08 14:50 36.67241 26.88947 9658 ft 308 kts 147°
2026-05-08 14:50 36.65575 26.90641 9520 ft 309 kts 140°
2026-05-08 14:50 36.64058 26.92550 9397 ft 309 kts 134°
2026-05-08 14:50 36.62728 26.94628 9063 ft 310 kts 127°
2026-05-08 14:51 36.61571 26.96899 8561 ft 312 kts 121°
2026-05-08 14:51 36.60619 26.99313 8229 ft 306 kts 114°
2026-05-08 14:51 36.59890 27.01777 7657 ft 299 kts 108°
2026-05-08 14:51 36.59392 27.04243 7240 ft 291 kts 102°
2026-05-08 14:52 36.59097 27.06699 6829 ft 288 kts 96°
2026-05-08 14:52 36.59098 27.11458 6043 ft 263 kts 84°
2026-05-08 14:52 36.59464 27.13643 5667 ft 253 kts 73°
2026-05-08 14:53 36.60073 27.15667 5296 ft 245 kts 69°
2026-05-08 14:53 36.60682 27.17615 4945 ft 238 kts 69°
2026-05-08 14:53 36.61289 27.19464 4580 ft 222 kts 61°
2026-05-08 14:53 36.62315 27.20749 4290 ft 202 kts 26°
2026-05-08 14:54 36.63612 27.21075 3968 ft 183 kts 353°
2026-05-08 14:54 36.64737 27.20573 3727 ft 164 kts 326°
2026-05-08 14:54 36.65666 27.19847 3480 ft 152 kts 326°
2026-05-08 14:54 36.66536 27.19171 3260 ft 144 kts 326°
2026-05-08 14:55 36.67371 27.18519 3049 ft 143 kts 326°
2026-05-08 14:55 36.68210 27.17862 2845 ft 142 kts 326°
2026-05-08 14:55 36.69051 27.17205 2627 ft 142 kts 326°
2026-05-08 14:55 36.69885 27.16554 2426 ft 141 kts 327°
2026-05-08 14:56 36.70715 27.15910 2232 ft 140 kts 327°
2026-05-08 14:56 36.71544 27.15268 2049 ft 140 kts 327°
2026-05-08 14:56 36.72372 27.14626 1857 ft 140 kts 327°
2026-05-08 14:56 36.73198 27.13985 1664 ft 139 kts 327°
2026-05-08 14:57 36.74019 27.13348 1469 ft 139 kts 327°
2026-05-08 14:57 36.74837 27.12711 1289 ft 138 kts 327°
2026-05-08 14:57 36.75653 27.12075 1088 ft 138 kts 327°
2026-05-08 14:57 36.76457 27.11451 901 ft 137 kts 327°
2026-05-08 14:58 36.77268 27.10820 708 ft 137 kts 327°
2026-05-08 14:58 36.78070 27.10198 526 ft 135 kts 327°
2026-05-08 14:58 36.78852 27.09586 442 ft 118 kts 329°
2026-05-08 14:58 36.79345 27.09205 438 ft 66 kts 328°
2026-05-08 14:59 36.79666 27.08987 434 ft 38 kts 348°
2026-05-08 14:59 36.79767 27.08979 430 ft 0 kts 360°
2026-05-08 14:59 36.79795 27.08982 434 ft 5 kts
2026-05-08 15:00 36.79859 27.08989 440 ft 13 kts
2026-05-08 15:00 36.79944 27.08972 440 ft 12 kts 337°
2026-05-08 15:00 36.80012 27.08925 438 ft 11 kts 329°
2026-05-08 15:00 36.80054 27.08931 445 ft 6 kts 52°
2026-05-08 15:01 36.80071 27.08966 439 ft 0 kts 59°